Weather History for La Crosse, WI

Change the Weather History Date:

Tuesday, May 7, 2013

  Actual Average Record
Temperature  
Mean Temperature 64 °F 57 °F  
Max Temperature 80 °F 68 °F 88 °F (1970)
Min Temperature 48 °F 46 °F 29 °F (1890)
Degree Days  
Heating Degree Days 1 9  
Month to date heating degree days 102 66  
Since 1 July heating degree days 7296 7018  
Cooling Degree Days 0 1  
Month to date cooling degree days 0 5  
Year to date cooling degree days 4 12  
Growing Degree Days 14 (Base 50)    
Moisture  
Dew Point 44 °F    
Average Humidity 55    
Maximum Humidity 86    
Minimum Humidity 23    
Precipitation  
Precipitation 0.00 in 0.11 in 1.31 in (1998)
Month to date precipitation 1.26 0.80  
Year to date precipitation 11.70 8.35  
Snow  
Snow 0.00 in 0.00 in 0.00 in (2000)
Month to date snowfall 0.8 0.1  
Since 1 July snowfall 60.6 43.4  
Snow Depth 0.00 in    
Sea Level Pressure  
Sea Level Pressure 30.00 in    
Wind  
Wind Speed 2 mph (South)    
Max Wind Speed 10 mph    
Max Gust Speed 14 mph    
Visibility 10 miles    
Events Rain    
T = Trace of Precipitation, MM = Missing Value Source: NWS Daily Summary

Daily Weather History Graph

Daily Weather History Graph

Search for Another Location

Airport:

Trip Planner

Search our weather history database for the weather conditions in past years. The results will help you decide how hot, cold, wet, or windy it might be!

Date:

Astronomy

May. 07, 2013 Rise Set
Actual Time 5:48 AM CDT 8:15 PM CDT
Civil Twilight 5:16 AM CDT 8:47 PM CDT
Nautical Twilight 4:35 AM CDT 9:28 PM CDT
Astronomical Twilight 3:50 AM CDT 10:14 PM CDT
Moon 4:27 AM CDT (5/7) 6:11 PM CDT (5/7)
Length of Visible Light 15h 31m
Length of Day
14h 26m
Waning Crescent, 5% of the Moon is Illuminated
May 7
Waning Crescent
May 9
New
May 17
First Quarter
May 24
Full
May 31
Last Quarter

Hourly Weather History & Observations

Time (CDT) Temp. Dew Point Humidity Pressure Visibility Wind Dir Wind Speed Gust Speed Precip Events Conditions
12:53 AM 55.9 °F 45.0 °F 67% 30.01 in 10.0 mi Calm Calm - N/A   Clear
1:53 AM 55.9 °F 46.9 °F 72% 30.01 in 10.0 mi SSE 3.5 mph - N/A   Clear
2:53 AM 55.9 °F 48.0 °F 75% 30.01 in 10.0 mi Calm Calm - N/A   Clear
3:53 AM 52.0 °F 46.9 °F 83% 30.01 in 10.0 mi Calm Calm - N/A   Clear
4:53 AM 50.0 °F 46.9 °F 89% 30.01 in 10.0 mi Calm Calm - N/A   Clear
5:53 AM 50.0 °F 45.0 °F 83% 30.03 in 10.0 mi ESE 3.5 mph - N/A   Clear
6:53 AM 52.0 °F 46.9 °F 83% 30.04 in 10.0 mi Calm Calm - N/A   Clear
7:53 AM 55.9 °F 48.9 °F 77% 30.06 in 10.0 mi Calm Calm - N/A   Clear
8:53 AM 61.0 °F 48.9 °F 64% 30.06 in 10.0 mi Calm Calm - N/A   Clear
9:53 AM 66.0 °F 46.0 °F 48% 30.04 in 10.0 mi Calm Calm - N/A   Clear
10:53 AM 72.0 °F 46.0 °F 40% 30.04 in 10.0 mi West 4.6 mph - N/A   Clear
11:53 AM 73.0 °F 45.0 °F 37% 30.03 in 10.0 mi South 5.8 mph - N/A   Clear
12:53 PM 73.9 °F 45.0 °F 35% 30.01 in 10.0 mi Calm Calm - N/A   Clear
1:53 PM 75.9 °F 39.0 °F 26% 29.99 in 10.0 mi SW 5.8 mph - N/A   Clear
2:53 PM 79.0 °F 39.0 °F 24% 29.97 in 10.0 mi SW 4.6 mph - 0.00 in Rain Light Rain
3:53 PM 79.0 °F 39.0 °F 24% 29.96 in 10.0 mi SSE 6.9 mph - 0.00 in   Clear
4:53 PM 79.0 °F 37.0 °F 22% 29.96 in 10.0 mi SSW 4.6 mph - N/A   Clear
5:53 PM 79.0 °F 37.0 °F 22% 29.95 in 10.0 mi SSE 6.9 mph - N/A   Clear
6:53 PM 77.0 °F 42.1 °F 29% 29.95 in 10.0 mi SW 4.6 mph - N/A   Clear
7:53 PM 71.1 °F 43.0 °F 36% 29.95 in 10.0 mi Calm Calm - N/A   Clear
8:53 PM 64.9 °F 41.0 °F 42% 29.96 in 10.0 mi Calm Calm - N/A   Clear
9:53 PM 64.0 °F 46.0 °F 52% 29.97 in 10.0 mi Calm Calm - N/A   Clear
10:53 PM 60.1 °F 48.9 °F 67% 29.96 in 10.0 mi Calm Calm - N/A   Clear
11:53 PM 59.0 °F 46.9 °F 64% 29.96 in 10.0 mi SSE 3.5 mph - N/A   Clear